Location: Unspecified
(0.0000°N, 0.0000°E)
Time: 20:53:11
(UTC+02:00)

Ariane H10 - Visible Passes

Search period start: 24 June 2018 00:00
Search period end: 04 July 2018 00:00
Orbit: 453 x 34788 km, 7.6° (Epoch: 23 June)

Date Brightness Start Highest point End Pass type
(mag) Time Alt. Az. Time Alt. Az. Time Alt. Az.
24 Jun 10.4 21:57:14 10° E 23:32:44 16° E 00:33:11 10° E visible
25 Jun 10.4 03:27:22 10° W 04:31:08 17° W 06:16:33 10° W visible
25 Jun 9.0 23:01:44 10° W 00:45:32 75° WSW 08:41:19 10° E visible
26 Jun 7.6 19:20:50 10° WNW 19:32:39 82° N 05:00:10 10° E visible
27 Jun 10.3 21:44:11 10° E 23:29:33 17° E 00:33:43 10° E visible
28 Jun 10.4 03:27:57 10° W 04:28:00 16° W 06:03:24 10° W visible
28 Jun 9.0 22:58:46 10° W 00:43:07 74° WSW 08:38:07 10° E visible
29 Jun 7.6 19:17:37 10° WNW 19:29:46 84° N 04:57:11 10° E visible
30 Jun 10.3 21:31:37 10° E 23:26:18 18° E 00:33:42 10° E visible
01 Jul 10.5 03:28:54 10° W 04:24:47 15° W 05:49:53 10° W visible
01 Jul 9.0 22:55:45 10° W 00:40:35 72° WSW 08:34:50 10° E visible
02 Jul 7.7 19:14:19 10° WNW 19:26:48 85° N 04:54:06 10° E visible
